Location: Cassano d�Adda
(45.5333°N, 9.5167°E)
Time: 21:10:30
(UTC+00:00)

Okean 1-7 - Pass Details

Date: 08 December 2019
Orbit: 590 x 619 km, 82.5° (Epoch: 24 January)

Event Time Altitude Azimuth Distance (km) Brightness Sun altitude
Rises 17:11:46 0° 167° (SSE) 2,843 6.5 -15.7°
Reaches altitude 10° 17:14:04 10° 159° (SSE) 1,949 5.6 -16.1°
Maximum altitude 17:18:03 37° 91° (E) 948 3.5 -16.7°
Enters shadow 17:19:12 31° 57° (ENE) 1,073 3.7 -16.9°
